Location: Logan
(41.7360°N, 111.8340°W)
Time: 01:23:36
(UTC-06:00)

Daily predictions for brighter satellites

Satellite Brightness Start Highest point End
(mag) Time Altitude Azimuth Time Altitude Azimuth Time Altitude Azimuth
Cosmos 1455 4.4 00:02:00 10° NW 00:04:37 18° W 00:05:54 15° WSW
BREEZE-M DEB (TANK) 3.5 00:05:03 10° WNW 00:06:26 36° W 00:06:26 36° W
NOSS 2-3 (E) 4.1 00:08:25 27° SW 00:11:08 73° NW 00:16:50 10° NNE
ALOS 2 3.8 00:11:53 28° E 00:12:26 29° ENE 00:16:13 10° N
Cosmos 2084 Rocket 3.4 00:13:04 64° NE 00:13:04 64° NE 00:16:20 10° NE
SL-16 R/B 2.6 00:07:24 10° NNW 00:12:54 51° WSW 00:14:25 40° SSW
Cosmos 2333 Rocket 4.2 00:13:35 10° WNW 00:17:19 18° W 00:19:45 14° SW
Cosmos 2227 4.1 00:17:47 54° S 00:19:01 72° ESE 00:24:42 10° NNE
SL-08 ROCKET BODY 4.5 00:18:56 48° SSE 00:20:33 67° E 00:26:39 10° NNE
SeaSat 1 3.0 00:20:10 40° E 00:21:24 50° ENE 00:26:10 10° NNW
Lacrosse 4 Rocket 2.6 00:17:27 10° NW 00:21:28 33° WSW 00:21:37 33° WSW
Cosmos 2297 Rocket 3.9 00:17:19 10° WSW 00:22:17 31° NW 00:27:16 10° N
ASTEX 1 4.0 00:18:21 10° NNE 00:22:58 40° E 00:23:08 40° E
Cosmos 921 Rocket 4.1 00:25:39 31° ENE 00:25:39 31° ENE 00:28:36 10° NE
Cosmos 44 Rocket 3.9 00:22:02 25° SW 00:24:59 58° NW 00:30:11 10° NNE
Cosmos 2251 Rocket 3.5 00:20:25 10° NNW 00:25:46 79° ENE 00:26:42 61° SE
Cosmos 494 Rocket 4.2 00:24:22 10° NNW 00:29:35 59° ENE 00:30:34 50° ESE
Cosmos 1782 3.9 00:26:31 10° N 00:29:51 34° ENE 00:29:51 34° ENE
Uosat 12 SS-18 rocket 4.2 00:30:35 56° SW 00:31:36 81° NW 00:36:06 10° NNE
Tiangong 1 3.9 00:29:12 10° W 00:29:31 12° W 00:29:31 12° W
Cosmos 1943 4.1 00:27:43 10° N 00:33:04 40° ENE 00:34:58 31° E
Terra 3.6 00:32:07 18° WSW 00:33:27 20° W 00:36:59 10° NW
Cosmos 1340 Rocket 3.2 00:35:09 57° NE 00:35:09 57° NE 00:38:27 10° NNE
Cosmos 1674 Rocket 4.0 00:31:50 10° N 00:36:09 48° E 00:36:10 48° E
CZ-4B R/B 3.0 00:37:27 31° NE 00:37:27 31° NE 00:39:48 10° N
H-2A R/B 4.0 00:36:41 16° WSW 00:38:47 20° W 00:42:40 10° NW
Cosmos 1606 4.2 00:40:29 10° NNE 00:43:26 28° ENE 00:43:26 28° ENE
Cosmos 1607 3.8 00:39:22 10° NNW 00:45:33 85° ENE 00:47:05 54° SE
Cosmos 389 Rocket 4.4 00:43:59 10° NW 00:46:22 24° WNW 00:46:22 24° WNW
COSMOS 2455 4.1 00:42:12 10° NW 00:47:02 26° WSW 00:48:06 24° WSW
Cosmos 1603 3.7 00:41:40 10° NNW 00:47:21 71° WSW 00:48:14 60° SSW
Cosmos 158 Rocket 4.5 00:44:47 10° NNW 00:49:48 46° WSW 00:50:15 44° WSW
Cosmos 1908 Rocket 4.3 00:56:37 43° ENE 00:56:37 43° ENE 01:00:16 10° NNE
Landsat 5 3.8 00:56:57 64° E 00:57:01 64° ENE 01:01:32 10° N
NOSS 3-2 (A) 4.1 00:49:49 10° NNW 00:57:17 70° NE 01:01:07 34° SE
Cosmos 2074 Rocket 4.5 00:55:09 37° SW 00:57:23 54° WNW 01:03:35 10° N
Cosmos 1610 Rocket 4.4 00:57:16 52° SSW 00:58:49 77° W 01:04:59 10° N
NOSS 3-4 (A) 3.6 00:58:06 53° SSE 00:58:53 57° ESE 01:05:17 10° NE
NOSS 3-4 (C) 3.6 00:58:13 53° SE 00:58:59 56° ESE 01:05:22 10° NE
Cosmos 1892 3.4 01:00:06 49° NW 01:00:06 49° NW 01:03:16 10° N
Nadezhda 3 Rocket 4.0 00:53:31 10° N 00:59:46 77° E 01:01:12 55° SSE
Meteor 1-27 Rocket 4.0 00:55:23 10° N 01:01:08 58° ENE 01:02:13 49° ESE
H-2A R/B 2.6 01:00:57 10° NNE 01:05:05 81° NNW 01:05:05 81° NNW
RESURS DK-1 4.2 01:07:11 22° ENE 01:07:11 22° ENE 01:09:19 10° NE
Meteor 2-6 Rocket 4.2 01:01:27 10° N 01:07:22 90° W 01:08:26 63° S
Helios 1A Rocket 3.6 01:04:37 10° NNE 01:08:04 48° ENE 01:08:04 48° ENE
GEOS 3 Rocket 3.6 01:11:25 58° ESE 01:12:26 77° NE 01:17:37 10° NNW
Cosmos 1689 Rocket 3.9 01:14:14 34° NNW 01:14:14 34° NNW 01:16:14 10° NNW
Cosmos 44 4.1 01:11:51 35° WSW 01:13:50 53° NW 01:19:11 10° NNE
Cosmos 1825 3.4 01:16:12 35° NE 01:16:12 35° NE 01:18:51 10° NNE
Cosmos 1862 4.0 01:17:49 49° NE 01:17:49 49° NE 01:21:02 10° NNE
Cosmos 1733 Rocket 4.0 01:24:01 37° W 01:24:14 38° WNW 01:28:24 10° N
Meteor 2-10 Rocket 4.4 01:20:40 10° NNW 01:25:56 41° W 01:26:48 38° WSW
Cosmos 2154 Rocket 4.2 01:29:22 47° SW 01:31:00 61° W 01:37:13 10° N
Cosmos 1378 Rocket 3.7 01:31:08 10° N 01:35:05 68° NW 01:35:05 68° NW
Cosmos 1371 Rocket 4.2 01:36:59 55° ESE 01:37:12 55° ESE 01:42:26 10° NNE
Cosmos 2263 Rocket 2.0 01:36:37 69° S 01:37:20 83° ESE 01:43:03 10° NNE
Cosmos 2056 Rocket 4.2 01:37:52 40° ESE 01:37:58 40° ESE 01:42:50 10° NE
Sich 1 Rocket 4.3 01:40:46 43° W 01:40:50 43° WNW 01:45:11 10° N
Meteor 2-13 Rocket 4.3 01:40:52 61° S 01:42:03 88° E 01:48:14 10° N
Cosmos 1238 Rocket 4.1 01:42:18 10° NNW 01:44:31 30° NW 01:44:31 30° NW
OceanSat 1 rocket 4.5 01:41:09 10° NNE 01:46:02 86° WNW 01:46:12 83° SW
ALOS 2 4.2 01:49:17 25° W 01:49:17 25° W 01:52:24 10° NW
CZ-4C R/B 3.1 01:42:20 10° NW 01:49:17 53° WSW 01:50:44 47° SSW
Geosat 3.8 01:46:54 10° NNE 01:51:58 89° WNW 01:52:25 75° SSW
FALCON 9 R/B 4.4 01:44:35 10° W 01:50:19 20° WSW 01:50:19 20° WSW
CZ-2C R/B 2.4 01:48:38 10° NNE 01:53:51 81° WNW 01:54:24 71° SW
SeaSat 1 4.1 01:59:57 21° W 01:59:57 21° W 02:02:55 10° NW
Cosmos 1184 Rocket 4.3 02:01:22 36° NNE 02:01:22 36° NNE 02:03:32 10° NNE
Cosmos 1959 Rocket 4.4 02:02:04 57° SSW 02:03:27 86° W 02:09:42 10° N
Cosmos 1782 Rocket 4.0 02:05:24 50° WNW 02:05:24 50° WNW 02:09:33 10° N
Cosmos 2278 Rocket 4.2 02:04:33 14° ESE 02:05:51 15° E 02:08:49 10° ENE
CENTAUR R/B 3.8 01:59:58 10° NNW 02:07:31 52° NE 02:15:31 10° ESE
MOS 1-B Rocket 4.2 02:09:26 45° WSW 02:09:59 46° W 02:15:23 10° NNW
SL-8 Rocket 4.2 02:09:52 49° SW 02:11:25 63° W 02:17:43 10° N
SL-08 R/B 4.5 02:10:47 55° SSW 02:12:14 77° W 02:18:37 10° N
Okean 2 Rocket 3.6 02:13:34 50° WNW 02:13:34 50° WNW 02:17:56 10° N
BREEZE-M TANK 2.7 02:09:44 10° WNW 02:14:27 55° NNW 02:14:27 55° NNW
COSMOS 2406 3.5 02:09:19 10° NNW 02:15:06 66° ENE 02:17:10 39° SE
Cosmos 1943 4.2 02:12:04 10° NW 02:16:46 30° W 02:16:46 30° W
Cosmos 1339 Rocket 4.4 02:12:13 10° N 02:18:19 77° E 02:20:01 49° SSE
Cosmos 1408 4.3 02:20:05 26° WNW 02:20:05 26° WNW 02:22:48 10° NNW
Cosmos 1624 Rocket 3.9 02:20:53 64° SW 02:21:36 75° WNW 02:26:52 10° NNE
Cosmos 724 4.5 02:18:54 10° NNW 02:25:03 77° ENE 02:27:57 33° SE
Cosmos 1975 Rocket 4.3 02:22:46 10° NNW 02:26:09 30° WNW 02:26:09 30° WNW
NOSS 3-2 (C) 4.3 02:20:03 10° NW 02:27:13 46° WSW 02:28:49 41° SW
Cosmos 2218 Rocket 4.3 02:25:53 44° SW 02:27:31 57° W 02:33:48 10° N
Cosmos 909 Rocket 4.2 02:25:39 46° SW 02:27:49 81° WNW 02:35:19 10° NNE
Meteor 1-25 Rocket 4.3 02:31:39 51° SSE 02:33:03 71° E 02:38:51 10° NNE
Cosmos 1461 4.4 02:33:54 28° ESE 02:33:56 28° ESE 02:37:54 10° NE
Cosmos 2366 rocket 4.3 02:35:10 43° SW 02:36:47 55° WNW 02:42:53 10° N
Cosmos 967 Rocket 4.4 02:34:57 50° SSW 02:36:49 84° ESE 02:43:21 10° NNE
Cosmos 1536 Rocket 3.4 02:34:24 10° N 02:38:48 77° W 02:38:51 76° WSW
Cosmos 1452 Rocket 3.6 02:42:27 55° SSE 02:43:27 68° ESE 02:48:41 10° NNE
RESURS DK-1 3.9 02:43:06 25° WNW 02:43:47 26° NW 02:47:20 10° N
ERS-2 4.0 02:42:21 10° NE 02:45:15 21° E 02:45:34 21° ESE
CZ-2C R/B 3.8 02:44:52 39° WSW 02:45:30 40° W 02:50:43 10° NNW
Cosmos 1242 Rocket 4.0 02:44:53 10° NNW 02:46:59 27° NW 02:46:59 27° NW
Abrixas rocket 4.2 02:51:24 21° NW 02:52:46 29° N 02:55:45 10° NE
Cosmos 1140 Rocket 4.2 02:50:26 10° N 02:55:26 50° ENE 02:58:37 21° SE
SL-08 R/B 4.1 02:53:07 26° SE 02:55:33 49° ENE 03:00:15 10° N
NOSS 2-2 (D) 3.8 02:56:06 50° SE 02:56:20 51° ESE 03:00:52 10° NE
AQUA 4.4 03:01:34 10° NNE 03:06:12 49° E 03:07:41 36° SSE
Cosmos 1812 3.0 03:06:30 10° NNW 03:10:07 53° W 03:10:07 53° W
NOSS 2-2 (C) 3.4 03:10:10 61° S 03:10:45 72° ESE 03:15:28 10° NE
Okean 1 Rocket 3.0 03:11:32 60° SSW 03:12:17 77° W 03:16:47 10° N
COSMOS 2487 3.1 03:09:17 10° N 03:12:51 53° ENE 03:13:44 41° ESE
Resurs 1-4 Rocket 4.2 03:11:29 10° NE 03:15:17 20° E 03:19:02 10° SE
Cosmos 1844 Rocket 2.7 03:14:45 41° SW 03:16:43 70° WNW 03:22:24 10° NNE
IRS-P3 4.1 03:11:52 10° NNE 03:17:15 89° WNW 03:19:10 42° SSW
BREEZE-M DEB (TANK) 4.4 03:08:04 10° W 03:18:31 41° NNW 03:22:00 10° NE
ADEOS 4.3 03:13:41 10° NNE 03:18:43 46° E 03:21:12 27° SSE
Cosmos 407 Rocket 4.1 03:14:07 10° NW 03:18:51 37° WSW 03:19:18 36° WSW
Cosmos 1934 Rocket 4.0 03:16:07 34° S 03:18:59 81° E 03:25:09 10° N
Cosmos 1025 Rocket 3.5 03:16:48 10° N 03:21:03 56° E 03:22:58 30° SE
Cosmos 1633 3.6 03:20:18 32° SE 03:21:09 37° E 03:24:33 10° NNE
Cosmos 1536 3.5 03:20:02 36° SE 03:21:13 48° E 03:25:08 10° NNE
Cosmos 2263 Rocket 4.3 03:18:19 10° W 03:22:00 17° NW 03:25:40 10° N
Okean 1-7 Rocket 3.6 03:17:41 10° NNW 03:22:14 65° W 03:23:11 50° SSW
PSLV R/B 4.2 03:18:30 10° N 03:22:27 40° WNW 03:23:10 37° W
Cosmos 1850 Rocket 4.2 03:19:11 10° NNW 03:24:26 70° ENE 03:28:21 18° SSE
Cosmos 1741 Rocket 4.1 03:23:29 10° NNW 03:28:46 74° ENE 03:32:42 18° SSE
SL-27 R/B 4.4 03:26:15 10° NW 03:28:00 19° WNW 03:28:00 19° WNW
Meteor 1-19 Rocket 4.4 03:23:37 10° N 03:29:29 78° E 03:33:23 22° SSE
IRAS Rocket 4.2 03:25:58 10° NNE 03:31:31 81° WNW 03:33:58 35° SSW
Meteor 2-14 Rocket 4.4 03:28:38 32° S 03:31:39 87° E 03:37:46 10° N
Cosmos 1455 Rocket 4.5 03:30:38 18° SE 03:33:15 33° E 03:37:15 10° NNE
ATLAS 5 CENTAUR R/B 2.5 03:28:19 10° NNW 03:34:20 78° NE 03:40:46 10° SE
NOSS 2-2 (E) 3.9 03:33:57 39° WSW 03:35:22 62° NW 03:40:19 10° NNE
Gbstr 26 Del rocket 3.7 03:34:20 25° W 03:36:12 43° NNW 03:39:48 10° NE
Cosmos 1844 3.9 03:35:27 34° SW 03:37:55 64° WNW 03:43:41 10° NNE
Spot 4 Rocket 4.3 03:35:42 10° NNE 03:40:49 63° ESE 03:43:39 26° S
Meteor 2-15 4.4 03:34:52 10° N 03:41:03 84° W 03:45:03 23° S
Meteor 2-21 Rocket 4.5 03:40:04 32° SSW 03:42:59 67° W 03:49:06 10° N
ATLAS 2A CENTAUR R/B 4.1 03:42:21 25° SSW 03:44:53 28° SSE 04:04:41 10° ESE
Cosmos 614 Rocket 3.9 03:39:48 10° NNW 03:45:00 90° ENE 03:48:58 17° SSE
Timation 2 Rocket 4.0 03:40:25 10° NNW 03:46:34 80° ENE 03:52:33 10° SSE
GP-B 3.7 03:42:42 10° NNW 03:46:54 42° W 03:48:06 34° WSW
Cosmos 2278 Rocket 2.2 03:46:24 32° SSW 03:49:10 77° WNW 03:54:53 10° NNE
Meteor 1-11 Rocket 4.0 03:48:47 30° SSW 03:51:47 63° WNW 03:57:45 10° N
Cosmos 2297 4.0 03:49:40 24° S 03:52:59 60° ESE 03:58:36 10° NNE
USA 234 3.2 03:47:07 10° SE 03:53:39 80° SW 04:00:14 10° NW
CENTAUR R/B 3.4 03:50:54 10° NW 03:58:16 43° WSW 04:05:07 13° S
Cosmos 1400 Rocket 2.7 03:56:57 36° SSW 03:58:28 82° W 04:02:26 10° N
Cosmos 1544 Rocket 3.5 03:57:03 30° S 03:59:14 89° W 04:03:39 10° N
IRS-1D 3.9 03:54:43 10° NNE 03:59:43 59° E 04:03:14 19° S
Cosmos 1605 Rocket 4.0 03:57:15 25° SSW 04:00:58 69° W 04:07:15 10° N
Meteor 1-23 Rocket 4.2 03:56:39 10° NNW 04:02:22 80° W 04:06:57 16° S
CBERS 1 LM4 rocket 4.5 03:58:01 10° N 04:02:50 62° WNW 04:05:16 28° SW
APEX 3.5 04:02:21 30° SSE 04:03:23 43° ESE 04:06:42 10° NE
Cosmos 2123 Rocket 4.3 04:00:15 10° NNW 04:06:22 52° W 04:10:22 21° SSW
Cosmos 2082 Rocket 2.6 04:02:05 10° NNW 04:07:47 66° ENE 04:13:27 10° SSE
Meteor 1-5 Rocket 4.4 04:04:58 18° S 04:09:22 79° E 04:15:04 10° NNE
USA 161 1.6 04:10:59 43° SW 04:11:33 53° W 04:14:30 10° NNW
Cosmos 1174 3.4 04:08:02 10° NNW 04:11:40 75° ENE 04:14:46 10° SE
Cosmos 1461 4.1 04:10:23 20° WSW 04:13:02 37° NW 04:17:18 10° NNE
SL-16 R/B 2.6 04:08:33 10° SSE 04:14:48 89° ENE 04:21:03 10° NNW
ERS-2 3.6 04:15:55 10° NNW 04:19:00 25° WNW 04:20:25 20° WSW
Cosmos 1892 Rocket 4.0 04:19:52 10° NNW 04:23:59 42° W 04:26:25 21° SSW
Cosmos 1110 Rocket 4.0 04:20:24 19° SSW 04:24:17 86° ESE 04:29:36 10° NNE
ARIANE 5 R/B 2.5 04:19:39 10° N 04:24:39 73° WNW 04:28:22 18° SSW
CZ-2D R/B 2.2 04:19:54 10° NNE 04:25:24 82° ESE 04:30:13 14° SSW
Meteor 2-4 Rocket 4.0 04:21:50 10° NNW 04:26:55 45° W 04:30:49 16° SSW
Cosmos 1315 Rocket 3.0 04:27:40 22° SSW 04:30:10 59° W 04:34:10 10° N
Abrixas rocket 4.4 04:27:31 10° NW 04:30:28 28° N 04:33:25 10° ENE
Cosmos 1346 Rocket 3.9 04:26:57 10° N 04:30:52 45° ENE 04:34:42 10° SSE
Cosmos 2173 Rocket 4.0 04:29:04 11° S 04:35:04 88° E 04:41:18 10° N
USA 129 4.1 04:33:46 10° SE 04:35:29 23° ENE 04:37:09 10° NNE
SME Rocket 3.0 04:33:54 10° S 04:37:35 63° WSW 04:42:00 10° NNW
CZ-2C R/B 4.5 04:37:09 10° SSE 04:41:49 58° ENE 04:46:31 10° N
Cosmos 1331 Rocket 4.0 04:38:52 15° SSW 04:43:09 74° WNW 04:48:22 10° NNE
Cosmos 1833 Rocket 2.6 04:37:33 10° NNW 04:43:11 83° WSW 04:48:47 10° SSE
Cosmos 1459 Rocket 4.0 04:39:49 10° SSW 04:46:06 75° W 04:52:24 10° N
Cosmos 2285 Rocket 4.5 04:40:30 10° S 04:46:39 60° ESE 04:52:52 10° NNE
UNKNOWN OBJECT B 2.9 04:42:32 10° N 04:46:39 79° WNW 04:50:28 12° SSW
BREEZE-M DEB (TANK) 2.0 04:48:01 18° SW 04:49:52 51° SSE 04:52:58 10° ENE
Cosmos 1975 2.8 04:46:31 11° S 04:50:18 79° W 04:54:19 10° N
MOS 1-B 4.4 04:44:47 10° N 04:50:35 73° WNW 04:56:22 10° SSW
IRS-1C Rocket 4.3 04:47:28 10° NNE 04:52:45 73° ESE 04:57:58 10° S
Cosmos 1602 Rocket 3.6 04:49:21 10° NNW 04:53:37 58° W 04:57:53 10° S
Cosmos 1802 Rocket 4.0 04:47:46 10° SSW 04:53:54 76° W 05:00:04 10° N
Thor Agena Rocket 4.2 04:49:09 10° SSE 04:54:12 58° ENE 04:59:13 10° N
Resurs 1-4 Rocket 2.4 04:50:16 10° N 04:55:26 53° WNW 05:00:25 11° SSW
CZ-4B R/B 4.2 04:52:11 10° NNE 04:56:32 44° E 05:00:43 10° S
Meteor 1-12 Rocket 4.4 04:52:45 10° SSW 04:58:34 68° WNW 05:04:19 10° N
Cosmos 2100 Rocket 4.3 04:54:18 10° SSW 05:00:25 54° WNW 05:06:39 10° N
PSLV R/B 4.0 05:00:00 10° NNE 05:04:10 85° ESE 05:08:14 10° SSW
EO 1 Del DPAF 4.4 05:02:57 10° SSW 05:06:08 25° W 05:09:23 10° NW
ASTRO F (AKARI) 4.5 05:05:38 10° S 05:09:05 78° WSW 05:12:46 10° NNW
Cosmos 1626 Rocket 4.2 05:05:58 10° NNW 05:10:02 38° W 05:14:06 10° SSW
Okean-O 4.3 05:06:36 10° NNE 05:10:38 33° E 05:14:38 10° SSE
ADEOS II 4.1 05:07:41 10° NE 05:12:10 28° E 05:16:37 10° SSE
PSLV R/B 3.8 05:09:46 11° SW 05:12:56 45° SSE 05:16:10 10° E
Okean O Rocket 1.6 05:10:01 10° N 05:14:21 75° WNW 05:18:41 10° SSW
Cosmos 2369 Rocket 3.5 05:12:39 10° S 05:17:54 40° ESE 05:23:09 10° NE
ATLAS 5 CENTAUR R/B 3.7 05:14:18 10° WNW 05:18:35 20° WSW 05:23:00 10° SSW
Cosmos 1503 Rocket 4.1 05:14:31 10° NNW 05:19:44 83° ENE 05:24:56 10° SSE
Cosmos 1302 Rocket 4.3 05:18:29 10° SW 05:23:35 55° WNW 05:28:45 10° NNE
CZ-3A R/B 4.4 05:14:15 10° SSW 05:33:20 57° SE 05:38:22 10° ENE
